Regional Weather Roundup
Issued by NWS

Home | Current Version | Previous Version | Text Only | Print | Product List | Glossary Off
Versions: 1 2 3 4 5 6 7 8 9 10 11 12 13 14 15 16 17 18 19 20 21 22 23 24 25 26 27 28 29 30 31 32 33 34 35 36 37 38 39 40 41 42 43 44 45 46 47 48 49 50

000
ASUS43 KDTX 240310
RWRMI
MICHIGAN HOURLY REGIONAL WEATHER ROUNDUP
NATIONAL WEATHER SERVICE DETROIT/PONTIAC MI
1100 PM EDT THU MAR 23 2017

NOTE: "FAIR" INDICATES FEW OR NO CLOUDS BELOW 12,000 FEET WITH NO
SIGNIFICANT WEATHER AND/OR OBSTRUCTION TO VISIBILITY.

MIZ047>049-052>055-059>063-066>070-074>076-081>083-240400-
SOUTHEAST LOWER MICHIGAN

CITY           SKY/WX    TMP DP  RH WIND       PRES   REMARKS
ADRIAN         CLOUDY    36  29  75 E3        30.20F
ALMA           LGT RAIN  38  28  68 SE6       30.15F WCI  33
ANN ARBOR      CLOUDY    36  27  69 VRB7      30.20F WCI  30
BAD AXE        CLOUDY    35  18  50 SE9       30.18F WCI  28
CARO           CLOUDY    37  17  45 SE10G16   30.17S WCI  30
DETROIT CITY   CLOUDY    35  26  69 SE6       30.23S WCI  30
DETROIT        CLOUDY    39  23  52 SE6       30.21F WCI  35
FLINT          LGT RAIN  40  21  46 S10       30.17F WCI  33
GROSSE ILE     CLOUDY    37  28  67 E3        30.21F
HILLSDALE      RAIN      36  28  75 SE8       30.14F WCI  29
HOWELL         RAIN      37  24  57 S9        30.17S WCI  31

CITY           SKY/WX    TMP DP  RH WIND       PRES   REMARKS
JACKSON        MIX PCPN  37  28  70 SE9       30.15F WCI  30
LAMBERTVILLE   CLOUDY    38  30  72 CALM      30.19F
LANSING        LGT RAIN  38  25  59 S13       30.17S WCI  30
LAPEER         CLOUDY    36  21  54 SE9G16    30.18F WCI  29
MASON          LGT RAIN  36  29  75 SE6       30.15F WCI  31
MONROE         CLOUDY    37  32  82 E10       30.20F WCI  30
MT. CLEMENS    CLOUDY    35  28  75 SE9       30.22S WCI  28
PONTIAC        CLOUDY    37  21  52 SE9       30.18F WCI  30
PORT HOPE        N/A     36  19  50 SE13      30.17F WCI  27
PORT HURON     CLOUDY    34  18  51 SE8       30.23F WCI  27
TRI CITIES     LGT RAIN  37  23  56 SE8       30.16F WCI  31
MIDLAND        DRIZZLE   40  19  42 S7        30.14F
TROY           CLOUDY    37  21  54 SE5       30.23F WCI  33
SAGINAW HB     DRIZZLE   37  21  52 SE8       30.17R WCI  31
$$
MIZ043>046-050>051-056>058-064>065-071>073-077>080-240400-
SOUTHWEST LOWER MICHIGAN

CITY           SKY/WX    TMP DP  RH WIND       PRES   REMARKS
BATTLE CREEK   TSTM      43  30  60 SE7       30.15R
BENTON HARBOR  LGT RAIN  43  33  68 SE12G17   30.04F
BIG RAPIDS     FLURRIES  38  22  51 S6        30.10F WCI  34
COLDWATER      LGT RAIN  43  29  57 S3        30.15S
FREMONT        RAIN      38  30  72 S7        30.12S WCI  33
HOLLAND        LGT RAIN  41  33  73 SE7       30.12R
GRAND RAPIDS   HVY RAIN  41  30  65 SE8       30.11F
IONIA          LGT RAIN  38  30  75 SE10      30.12F WCI  30
KALAMAZOO      RAIN      43  29  57 S12G18    30.12F
LUDINGTON      CLOUDY    38  29  70 SE7G17    30.03F WCI  33
MARSHALL       LGT RAIN  40  32  73 E7        30.11F WCI  35
MOUNT PLEASANT LGT RAIN  38  22  53 SE7       30.12F WCI  33
MUSKEGON       RAIN      39  35  86 SE9       30.12R WCI  33
SOUTH HAVEN    LGT RAIN  42  33  71 SE8       30.07F
$$
MIZ016>042-240400-
NORTHERN LOWER MICHIGAN

CITY           SKY/WX    TMP DP  RH WIND       PRES   REMARKS
ALPENA         CLOUDY    37  16  42 S10       30.20R WCI  30
BEAVER ISLAND  CLOUDY    33  29  85 SE6       30.06F WCI  27
BELLAIRE       CLOUDY    35  26  69 E3        30.08F
CADILLAC       CLOUDY    38  17  43 SE10      30.03F WCI  31
CHARLEVOIX     LGT RAIN  35  26  69 SE7       30.09F WCI  29
FRANKFORT      CLOUDY    40  15  35 CALM      30.05F
GAYLORD        LGT RAIN  34  23  64 SE8       30.07F WCI  27
GRAYLING       CLOUDY    34  23  64 SE7       30.10F WCI  28
HARBOR SPRINGS LGT RAIN  34  25  69 E3        30.11F
HOUGHTON LAKE  CLOUDY    36  17  46 S8        30.11F WCI  30
MANISTEE       CLOUDY    41  14  33 SE3       30.05F
OSCODA         MIX PCPN  37  22  54 S8G16     30.17F WCI  30
PELLSTON       LGT RAIN  33  24  69 SE9       30.10F WCI  25
ROGERS CITY    CLOUDY    36  20  53 S9        30.18R WCI  29
TRAVERSE CITY  CLOUDY    41  17  38 SE5       30.05F
$$
MIZ007>008-015-240400-
EASTERN UPPER MICHIGAN

CITY           SKY/WX    TMP DP  RH WIND       PRES   REMARKS
KINROSS        MIX PCPN  32  24  72 SE14      30.12F WCI  22
MACKINAC ISLAN FLURRIES  33  21  61 SE7       30.10F WCI  27
NEWBERRY       CLOUDY    32  27  82 SE10      30.06F WCI  23
S. S. MARIE    LGT RAIN  34  24  67 SE8       30.14S WCI  27
MUNISING         N/A     33  28  81 S8        29.98F WCI  26
$$
MIZ004>006-011>014-085-240400-
CENTRAL UPPER MICHIGAN

CITY           SKY/WX    TMP DP  RH WIND       PRES   REMARKS
MANISTIQUE     MIX PCPN  32  30  93 SE8       30.04F WCI  25
ESCANABA       LGT RAIN  34  29  82 SE7       29.99F WCI  28
MENOMINEE        N/A    N/A N/A N/A MISG        N/A
SAWYER-GWINN   CLOUDY    31  28  90 S15       29.93F WCI  20
$$
MIZ001>003-009>011-084-240400-
WESTERN UPPER MICHIGAN

CITY           SKY/WX    TMP DP  RH WIND       PRES   REMARKS
IRON MOUNTAIN  MIX PCPN  32  26  78 SE5       29.94F WCI  27
HOUGHTON       FRZ RAIN  33  28  81 E5        29.94R WCI  29
COPPER HARBOR    N/A     33  31  92 SW10G21   29.94R WCI  25
IRONWOOD       LGT RAIN  33  31  92 CALM      29.95R FOG
$$

ABBREVIATIONS USED IN REMARKS
   TC - TEMPERATURE IN CELSIUS
  WCI - WIND CHILL INDEX
   HX - HEAT INDEX
  VSB - VISIBILITY




USA.gov is the U.S. government's official web portal to all federal, state and local government web resources and services.